Regional Weather Roundup
Issued by NWS

Home | Current Version | Previous Version | Graphics & Text | Print | Product List | Glossary On
Versions: 1 2 3 4 5 6 7 8 9 10 11 12 13 14 15 16 17 18 19 20 21 22 23 24 25 26 27 28 29 30 31 32 33 34 35 36 37 38 39 40 41 42 43 44 45 46 47 48 49 50
000
ASUS43 KDMX 290103
RWRIA

WEATHER ROUNDUP FOR IOWA
NATIONAL WEATHER SERVICE DES MOINES IA
800 PM CDT SAT MAY 28 2016

NOTE: "FAIR" INDICATES FEW OR NO CLOUDS BELOW 12,000 FEET WITH NO
SIGNIFICANT WEATHER AND/OR OBSTRUCTIONS TO VISIBILITY.

* - THESE STATIONS ARE NOT NWS STATIONS...THUS NOT UNDER NWS
QUALITY CONTROL.  THEY ALSO DO NOT REPORT WEATHER SUCH
AS PRECIPITATION OR FOG.

IAZ001>003-012>014-020>022-031>034-043>046-290200-
   NORTHWEST IOWA

CITY           SKY/WX    TMP DP  RH WIND       PRES   REMARKS
CARROLL *      CLOUDY    66  61  82 SW16G23   29.81R
CHEROKEE *     RAIN      62  61  98 N7        29.81R
DENISON *      CLOUDY    64  59  82 W12G20    29.82R
LE MARS *      CLOUDY    66  61  82 NW12G18   29.84R
ORANGE CITY *  MOCLDY    64  63  94 N7        29.82R
SHELDON *      CLOUDY    63  61  94 E7        29.81R
SIOUX CITY     MOCLDY    65  58  78 NW17      29.84R
SPENCER        LGT RAIN  62  59  90 NE8       29.83R FOG
STORM LAKE *   MOCLDY    64  59  82 NW15G21   29.81R
$$

IAZ055>058-069>071-079>083-090>094-290200-
   SOUTHWEST IOWA

CITY           SKY/WX    TMP DP  RH WIND       PRES   REMARKS
ATLANTIC *     PTCLDY    70  55  60 W16G24    29.86R
AUDUBON *      RAIN      66  59  77 NW6       29.86R
CLARINDA *       N/A     72  61  68 MISG      29.90R
COUNCIL BLFS * CLEAR     70  55  60 W9G18     29.87R
CRESTON *      CLEAR     70  59  68 W12G20    29.89R
HARLAN  *      CLOUDY    68  57  68 W14       29.89R
LAMONI         MOCLDY    70  60  70 SW10      29.89R
RED OAK *      CLEAR     72  57  60 W9        29.88R
SHENANDOAH *   CLOUDY    73  61  64 W7        29.89R
$$

IAZ047>049-059>061-072>074-084-290200-
   CENTRAL IOWA

CITY           SKY/WX    TMP DP  RH WIND       PRES   REMARKS
AMES           CLOUDY    68  57  68 SW13      29.82R
ANKENY *       CLOUDY    72  61  68 SW7       29.83R
BOONE *        MOCLDY    68  57  68 SW14G21   29.81R
CHARITON *     MOCLDY    72  61  68 SW7       29.87R
DES MOINES     MOCLDY    73  58  59 SW15      29.83R THUNDER
GRINNELL*      PTCLDY    70  61  73 SW13      29.85R
KNOXVILLE *    MOCLDY    70  61  73 S8        29.85R
MARSHALLTOWN   MOCLDY    70  62  76 SW8       29.82R
NEWTON *       MOCLDY    70  61  73 SW12      29.84R
PELLA *        MOCLDY    71  60  67 SW9       29.87R
PERRY *        MOCLDY    68  59  73 SW14      29.83R
$$

IAZ004>006-015-016-023>025-035-036-290200-
   NORTH CENTRAL IOWA

CITY           SKY/WX    TMP DP  RH WIND       PRES   REMARKS
ALGONA *       CLOUDY    63  61  94 N7        29.80R
CLARION *      CLOUDY    68  59  73 SW17G23   29.79R
ESTHERVILLE    CLOUDY    62  61  96 N6        29.80R
FORT DODGE *   CLOUDY    66  55  68 SW13      29.79S
MASON CITY     LGT RAIN  64  63  96 CALM      29.81R
FOREST CITY *  RAIN      61  61 100 NW8       29.81R
WEBSTER CITY * CLOUDY    66  61  82 SW22G31   29.79R HAZE
IOWA FALLS *   MOCLDY    68  61  77 S9        29.81R
$$

IAZ007>011-017>019-026>030-037>042-050>054-066-290200-
   NORTHEAST IOWA

CITY           SKY/WX    TMP DP  RH WIND       PRES   REMARKS
CEDAR RAPIDS   CLEAR     70  63  78 SW9       29.84R
CHARLES CITY * MOCLDY    64  63  94 S6        29.81S
CLINTON *      CLOUDY    75  64  68 SW15      29.86R
DECORAH *      CLOUDY    68  64  88 SW8       29.80R
DUBUQUE        CLOUDY    71  60  68 SW13      29.84R
MONTICELLO *   CLOUDY    72  61  68 SW13      29.84R
OELWEIN *      PTCLDY    68  64  88 SW13G18   29.83R
WATERLOO       CLOUDY    70  60  70 SW10      29.81R
$$

IAZ064-065-067-068-078-290200-
   EAST CENTRAL IOWA

CITY           SKY/WX    TMP DP  RH WIND       PRES   REMARKS
DAVENPORT      CLOUDY    75  60  59 SW13      29.86R
IOWA CITY      PTCLDY    73  60  63 SW14      29.85R
MT. PLEASANT * PTCLDY    77  63  61 W9        29.88R
MUSCATINE *    PTCLDY    75  59  57 SW10G24   29.86R
QUAD CITIES    CLOUDY    78  61  55 SW8       29.85R HX  80
$$

IAZ062-063-075>077-085>089-095>099-290200-
   SOUTHEAST IOWA

CITY           SKY/WX    TMP DP  RH WIND       PRES   REMARKS
BURLINGTON     MOCLDY    75  62  64 SW13      29.88R
FAIRFIELD *      N/A    N/A N/A N/A MISG        N/A
FORT MADISON * PTCLDY    75  61  60 SW12      29.89R
KEOKUK *       MOCLDY    75  61  60 SW10      29.88R
OSKALOOSA *      N/A     72  61  68 SW14      29.87R
OTTUMWA        CLEAR     71  60  68 SW12      29.87R
WASHINGTON *   MOCLDY    72 -36   1 SW13G20   29.88R
$$

ABBREVIATIONS USED IN REMARKS
   TC - TEMPERATURES IN CELSIUS
  WCI - WIND CHILL INDEX
   HX - HEAT INDEX
  VSB - VISIBILITY
$$





USA.gov is the U.S. government's official web portal to all federal, state and local government web resources and services.